Brevnov, Czech Republic

2:45 AM CET on November 18, 2017 (GMT +0100)
Brevnov

Weather History for 11518 - August, 2013

Change the Weather History Date:

Sunday, August 25, 2013

  Actual Average Record
Temperature  
Mean Temperature 58 °F -  
Max Temperature 61 °F 67 °F - ()
Min Temperature 54 °F 48 °F - ()
Degree Days  
Heating Degree Days 8    
Growing Degree Days 8 (Base 50)    
Moisture  
Dew Point 53 °F    
Average Humidity 86    
Maximum Humidity 100    
Minimum Humidity 72    
Precipitation  
Precipitation 0.20 in 0.06 in - ()
Sea Level Pressure  
Sea Level Pressure 29.90 in    
Wind  
Wind Speed 9 mph ()    
Max Wind Speed 17 mph    
Max Gust Speed -    
Visibility 5.1 miles    
Events Rain    
T = Trace of Precipitation, MM = Missing Value Source: Averaged Metar Reports

Daily Weather History Graph

Daily Weather History Graph

Search for Another Location

Airport or City:

Trip Planner

Search our weather history database for the weather conditions in past years. The results will help you decide how hot, cold, wet, or windy it might be!

Date:

Astronomy

Aug. 25, 2013 Rise Set
Actual Time 6:07 AM CEST 8:01 PM CEST
Civil Twilight 5:32 AM CEST 8:36 PM CEST
Nautical Twilight 4:49 AM CEST 9:18 PM CEST
Astronomical Twilight 4:01 AM CEST 10:06 PM CEST
Moon 9:45 PM CEST (8/25) 11:26 AM CEST (8/25)
Length of Visible Light 15h 03m
Length of Day
13h 54m
Waning Gibbous, 78% of the Moon is Illuminated
Aug 25
Waning Gibbous
Aug 28
Last Quarter
Sep 5
New
Sep 12
First Quarter
Sep 19
Full

Hourly Weather History & Observations

Time (CEST) Temp. Dew Point Humidity Pressure Visibility Wind Dir Wind Speed Gust Speed Precip Events Conditions
12:00 AM 59.0 °F 53.6 °F 82% 29.95 in - East 6.9 mph - N/A   Clear
12:30 AM 59.0 °F 53.6 °F 82% 29.95 in - East 5.8 mph - N/A   Clear
1:00 AM 59.0 °F 53.6 °F 82% 29.92 in - East 8.1 mph - N/A   Clear
1:30 AM 57.2 °F 51.8 °F 82% 29.92 in - East 5.8 mph - N/A   Clear
2:00 AM 58 °F 53 °F 77% 29.92 in 16 mi East 4.5 mph - -   Partly Cloudy
2:00 AM 57.2 °F 51.8 °F 82% 29.92 in - East 4.6 mph - N/A   Clear
2:30 AM 55.4 °F 51.8 °F 88% 29.92 in - East 6.9 mph - N/A   Clear
3:00 AM 55.4 °F 51.8 °F 88% 29.92 in - East 5.8 mph - N/A   Clear
3:30 AM 55.4 °F 51.8 °F 88% 29.89 in - ENE 5.8 mph - N/A   Clear
4:00 AM 55.4 °F 51.8 °F 88% 29.89 in - East 6.9 mph - N/A   Clear
4:30 AM 53.6 °F 50.0 °F 88% 29.89 in 6.2 mi East 6.9 mph - N/A   Partly Cloudy
5:00 AM 55.4 °F 50.0 °F 82% 29.89 in 6.2 mi ENE 8.1 mph - N/A   Partly Cloudy
5:30 AM 55.4 °F 50.0 °F 82% 29.89 in - ENE 6.9 mph - N/A   Clear
6:00 AM 55.4 °F 50.0 °F 82% 29.89 in - East 10.4 mph - N/A   Clear
6:30 AM 57.2 °F 50.0 °F 77% 29.89 in 6.2 mi East 9.2 mph - N/A   Mostly Cloudy
7:00 AM 57.2 °F 50.0 °F 77% 29.89 in 6.2 mi ENE 8.1 mph - N/A   Mostly Cloudy
7:17 AM 57.2 °F 50.0 °F 77% 29.89 in 6.2 mi ENE 8.1 mph - N/A Rain Light Rain
7:30 AM 57.2 °F 50.0 °F 77% 29.89 in 6.2 mi East 9.2 mph - N/A   Mostly Cloudy
8:00 AM 57 °F 51 °F 74% 29.88 in 31 mi East 8.9 mph - - Rain Light Rain
8:00 AM 57.2 °F 51.8 °F 82% 29.89 in 6.2 mi East 8.1 mph - N/A   Mostly Cloudy
8:30 AM 57.2 °F 50.0 °F 77% 29.89 in 6.2 mi East 11.5 mph - N/A   Mostly Cloudy
9:00 AM 57.2 °F 50.0 °F 77% 29.89 in 6.2 mi East 10.4 mph - N/A   Mostly Cloudy
9:30 AM 57.2 °F 50.0 °F 77% 29.89 in 6.2 mi East 11.5 mph - N/A Rain Light Rain
10:00 AM 57.2 °F 50.0 °F 77% 29.89 in 6.2 mi East 12.7 mph - N/A   Overcast
10:30 AM 59.0 °F 50.0 °F 72% 29.89 in 6.2 mi East 11.5 mph - N/A Rain Light Rain
11:00 AM 59.0 °F 51.8 °F 77% 29.89 in 6.2 mi ENE 11.5 mph - N/A Rain Light Rain
11:30 AM 59.0 °F 51.8 °F 77% 29.89 in 6.2 mi East 10.4 mph - N/A   Mostly Cloudy
12:00 PM 59.0 °F 51.8 °F 77% 29.89 in 6.2 mi East 13.8 mph - N/A   Mostly Cloudy
12:30 PM 59.0 °F 51.8 °F 77% 29.89 in - East 15.0 mph - N/A   Clear
1:00 PM 60.8 °F 51.8 °F 72% 29.89 in 6.2 mi East 15.0 mph - N/A   Mostly Cloudy
1:30 PM 60.8 °F 51.8 °F 72% 29.89 in 6.2 mi East 15.0 mph - N/A   Overcast
1:35 PM 60.8 °F 51.8 °F 72% 29.89 in 6.2 mi ENE 9.2 mph - N/A Rain Light Rain
2:00 PM 59 °F 54 °F 77% 29.89 in 5 mi ENE 13.4 mph - - Rain Light Rain
2:00 PM 59.0 °F 53.6 °F 82% 29.89 in 5.0 mi East 15.0 mph - N/A Rain Light Rain
2:30 PM 59.0 °F 55.4 °F 88% 29.89 in 5.6 mi East 13.8 mph - N/A Rain Light Rain
3:00 PM 59.0 °F 53.6 °F 82% 29.89 in 5.0 mi ENE 15.0 mph - N/A Rain Light Rain
3:30 PM 57.2 °F 55.4 °F 94% 29.89 in 5.0 mi East 17.3 mph - N/A Rain Light Rain
4:00 PM 57.2 °F 55.4 °F 94% 29.89 in 5.0 mi East 16.1 mph - N/A Rain Light Rain
4:30 PM 57.2 °F 55.4 °F 94% 29.89 in 4.3 mi East 12.7 mph - N/A Rain Light Rain
5:00 PM 57.2 °F 55.4 °F 94% 29.89 in 3.7 mi East 13.8 mph - N/A Rain Light Rain
5:30 PM 57.2 °F 55.4 °F 94% 29.89 in 3.1 mi East 13.8 mph - N/A Rain Light Rain
6:00 PM 57.2 °F 55.4 °F 94% 29.89 in 3.7 mi East 13.8 mph - N/A Rain Light Rain
6:11 PM 57.2 °F 55.4 °F 94% 29.89 in 3.1 mi East 10.4 mph - N/A Rain Rain
6:17 PM 57.2 °F 55.4 °F 94% 29.89 in 3.1 mi ENE 10.4 mph - N/A Rain Light Rain
6:30 PM 57.2 °F 55.4 °F 94% 29.89 in 3.7 mi East 13.8 mph - N/A Rain Light Rain
7:00 PM 57.2 °F 55.4 °F 94% 29.92 in 3.7 mi East 13.8 mph - N/A   Mostly Cloudy
7:30 PM 57.2 °F 55.4 °F 94% 29.92 in 3.7 mi East 13.8 mph - N/A Rain Light Rain
8:00 PM 57 °F 55 °F 92% 29.92 in 2 mi ENE 11.2 mph - - Rain Light Rain
8:00 PM 57.2 °F 55.4 °F 94% 29.92 in 2.5 mi ENE 11.5 mph - N/A Rain Light Rain
8:08 PM 57.2 °F 55.4 °F 94% 29.92 in 3.1 mi ENE 9.2 mph - N/A Rain Rain
8:30 PM 57.2 °F 55.4 °F 94% 29.92 in 3.7 mi ENE 12.7 mph - N/A Rain Rain
8:44 PM 57.2 °F 55.4 °F 94% 29.92 in 3.7 mi ENE 9.2 mph - N/A Rain Rain
9:00 PM 57.2 °F 55.4 °F 94% 29.92 in 3.7 mi ENE 10.4 mph - N/A Rain Light Rain
9:12 PM 57.2 °F 55.4 °F 94% 29.92 in 3.7 mi ENE 8.1 mph - N/A Rain Light Rain
9:30 PM 57.2 °F 55.4 °F 94% 29.92 in 3.7 mi ENE 10.4 mph - N/A Rain Light Rain
10:00 PM 57.2 °F 55.4 °F 94% 29.92 in 3.7 mi ENE 12.7 mph - N/A Rain Light Rain
10:30 PM 55.4 °F 55.4 °F 100% 29.92 in 4.3 mi ENE 12.7 mph - N/A   Mostly Cloudy
11:00 PM 55.4 °F 55.4 °F 100% 29.92 in 4.3 mi ENE 11.5 mph - N/A Rain Light Rain
11:30 PM 55.4 °F 55.4 °F 100% 29.92 in 4.3 mi NE 9.2 mph - N/A Rain Light Rain